Location: Ammerl�gen
(47.2167°N, 9.6000°E)
Time: 13:37:09
(UTC+00:00)

Daily predictions for brighter satellites

Satellite Brightness Start Highest point End
(mag) Time Altitude Azimuth Time Altitude Azimuth Time Altitude Azimuth
Resurs 01 Rocket 3.1 18:46:18 10° ESE 18:49:43 22° ENE 18:53:09 10° NNE
Cosmos 1689 Rocket 3.0 18:48:51 10° N 18:51:37 51° WNW 18:54:21 10° SSW
BREEZE-M DEB (TANK) 3.7 18:48:39 10° WSW 18:52:27 88° NNW 19:05:53 10° ENE
Resurs 1-3 4.3 18:49:45 10° SE 18:53:46 36° ENE 18:57:48 10° N
Cosmos 405 Rocket 3.5 18:51:00 10° N 18:54:42 35° ENE 18:58:19 10° SE
Cosmos 2237 Rocket 2.8 18:52:11 10° NNW 18:57:31 41° NE 19:02:48 10° SE
Cosmos 1408 2.7 18:54:42 10° NNW 18:58:16 75° W 19:01:49 10° S
Cosmos 2058 3.0 18:56:57 10° N 19:01:08 64° E 19:05:14 10° SSE
Cosmos 407 Rocket 4.5 18:59:21 10° SSE 19:03:29 25° E 19:07:39 10° NE
Cosmos 1892 4.0 19:04:49 10° NNW 19:08:26 43° W 19:12:00 10° SSW
Cosmos 2279 Rocket 4.3 19:03:14 10° SSE 19:09:03 46° E 19:14:56 10° NNE
Exosat Rocket 3.8 19:02:35 10° NNW 19:09:06 86° ENE 19:14:13 10° SSE
Cosmos 1356 3.8 19:06:04 10° N 19:09:22 44° ENE 19:12:38 10° SSE
BREEZE-M DEB (TANK) 3.9 19:07:49 10° WSW 19:09:31 17° SSW 19:11:43 10° SSE
OBJECT-B 0.8 19:06:52 10° SSE 19:10:05 90° N 19:13:21 10° NNW
Cosmos 1825 2.2 19:09:03 10° N 19:12:51 86° W 19:16:38 10° S
Lacrosse 5 rocket 3.6 19:10:14 10° WNW 19:13:32 22° N 19:16:59 10° NE
Cosmos 2227 Rocket 3.2 19:09:06 10° SSE 19:13:33 24° ESE 19:18:01 10° NE
BREEZE-M DEB (TANK) 3.6 19:09:21 10° WSW 19:14:16 76° S 19:19:32 10° E
Cosmos 2026 Rocket 4.0 19:09:22 10° N 19:15:29 89° E 19:21:38 10° S
Cosmos 909 Rocket 4.0 19:12:22 10° SSW 19:18:40 71° ESE 19:25:06 10° NE
Cosmos 1818 3.6 19:13:33 10° SSW 19:18:59 87° SE 19:24:31 10° NE
Cosmos 1140 Rocket 4.2 19:15:12 10° SSE 19:19:36 30° E 19:24:02 10° NE
Cosmos 2297 Rocket 2.8 19:15:11 10° S 19:20:14 35° ESE 19:25:18 10° NE
USA 186 3.3 19:20:19 10° SSW 19:23:23 36° W 19:26:21 10° NNW
SJ-6B 3.2 19:20:30 10° S 19:24:10 60° W 19:27:55 10° NNW
Cosmos 44 3.8 19:21:21 10° SW 19:26:29 72° NW 19:31:54 10° NE
Cosmos-2242 4.2 19:24:16 15° SE 19:26:51 24° E 19:30:20 10° NE
Cosmos 2219 3.7 19:22:41 10° S 19:27:44 36° ESE 19:32:49 10° NE
Cosmos 2333 Rocket 3.6 19:23:28 10° NW 19:28:43 37° WSW 19:33:54 10° S
Genesis I 3.9 19:28:06 10° NNW 19:31:57 43° NE 19:34:32 19° ESE
Cosmos 2151 3.5 19:28:20 10° N 19:32:26 40° ENE 19:35:15 18° SE
Cosmos 1633 3.0 19:32:28 10° N 19:35:56 42° ENE 19:37:56 21° SE
Abrixas rocket 0.3 19:34:54 10° WSW 19:36:33 86° N 19:36:36 81° NE
Cosmos 1634 Rocket 4.3 19:31:32 10° SSW 19:37:48 73° W 19:44:03 10° N
IRIDIUM 106 4.3 19:35:16 10° S 19:40:25 65° E 19:45:36 10° N
ARIANE 5 R/B 3.8 19:41:00 19° ESE 19:43:03 26° ENE 19:46:42 10° N
Meteor 1-4 Rocket 4.4 19:44:56 14° ENE 19:44:56 14° ENE 19:46:24 10° NE
COSMOS 2455 3.8 19:40:27 13° SSE 19:44:31 25° ESE 19:49:18 10° NE
Cosmos 1076 Rocket 3.6 19:41:11 10° N 19:45:34 82° W 19:49:35 12° S
Cosmos 192 4.4 19:40:43 10° NNW 19:45:42 79° WSW 19:49:49 15° SSE
ATLAS 2AS CENTAUR R/B 4.0 19:38:08 10° WSW 19:45:48 50° NW 19:53:16 10° NE
USA 245 4.1 19:46:17 23° ESE 19:47:23 28° ENE 19:50:08 10° N
IGS 5A 3.4 19:47:41 21° SSE 19:50:24 67° ENE 19:54:32 10° N
CZ-2C R/B 4.0 19:46:59 10° NNE 19:51:12 42° E 19:53:53 20° SSE
Cosmos 1980 3.8 19:47:58 10° NNW 19:53:40 78° WSW 19:58:00 18° SSE
SL-16 R/B 2.9 19:48:25 10° NNW 19:53:49 41° NE 19:56:59 22° ESE
Cosmos 389 Rocket 2.9 19:52:48 10° SSW 19:56:18 63° WNW 19:59:52 10° N
Cosmos 2292 Rocket 4.4 19:50:04 10° N 19:56:46 79° W 20:01:19 12° S
Timation 2 Rocket 4.1 19:50:54 10° S 19:57:17 55° ESE 20:03:26 10° NE
SL-4 R/B 2.5 19:54:22 10° SW 19:58:32 44° SE 20:02:58 10° ENE
Cosmos 1190 Rocket 4.0 19:54:46 10° S 19:59:53 58° ESE 20:05:01 10° NNE
Ariane Rocket 3.9 19:56:48 10° S 20:01:39 46° W 20:06:31 10° NNW
BREEZE-M (TANK) 4.5 19:41:37 10° WNW 20:02:33 61° SW 20:05:47 24° SSE
Cosmos 2180 Rocket 4.4 19:56:59 10° S 20:03:10 88° E 20:09:20 10° N
Cosmos 1812 Rocket 3.7 20:00:22 10° SSW 20:04:48 78° W 20:09:18 10° N
FALCON 9 DEB 3.6 20:03:14 10° SW 20:05:23 35° S 20:05:23 35° S
SPOT 1/Viking Rocket 3.6 20:04:57 26° SE 20:07:53 65° ENE 20:13:05 10° N
Cosmos 2219 Rocket 4.4 20:05:29 10° NW 20:09:36 21° W 20:13:43 10° SSW
Meteor 2-21 4.5 20:04:51 10° N 20:10:55 81° W 20:15:51 16° S
FALCON 9 DEB 2.8 20:09:00 10° SW 20:11:43 56° S 20:11:43 56° S
SPOT 3 Rocket 3.8 20:11:35 18° S 20:15:30 67° WSW 20:20:41 10° NNW
Cosmos 2344 4.1 20:09:14 10° WSW 20:16:34 61° NW 20:24:39 10° NE
Cosmos 1655 Rocket 4.0 20:10:21 10° N 20:16:40 84° W 20:21:20 19° S
Cosmos 1766 Rocket 3.8 20:13:28 10° N 20:17:42 50° ENE 20:18:49 39° ESE
Cosmos 676 Rocket 4.1 20:15:17 25° SSE 20:18:04 50° ESE 20:23:05 10° NNE
ATLAS 3B R/B 4.1 20:11:55 10° NW 20:18:07 34° WSW 20:24:24 10° S
CARTOSAT-1 3.9 20:16:55 37° ESE 20:18:07 48° ENE 20:22:16 10° N
Terra 2.8 20:20:42 27° E 20:21:53 31° ENE 20:26:02 10° N
Meteor 2-3 Rocket 3.7 20:16:10 10° NNW 20:21:57 85° W 20:25:24 25° S
USA 215 3.3 20:18:58 26° ESE 20:22:55 77° NNE 20:29:29 10° NW
Okean 3 Rocket 3.7 20:18:58 10° N 20:23:28 58° ENE 20:24:41 42° SE
FALCON 9 DEB 3.0 20:21:23 10° WSW 20:23:54 57° SW 20:23:54 57° SW
Resurs 01 Rocket 2.5 20:22:48 17° SSW 20:25:55 45° W 20:30:14 10° NNW
Meteor 1-27 4.2 20:22:43 22° S 20:26:31 70° E 20:32:19 10° NNE
SPOT 5 3.2 20:25:52 37° ESE 20:27:02 45° ENE 20:31:38 10° N
MetOp-B 4.5 20:30:18 24° S 20:33:34 63° WSW 20:38:54 10° NNW
ERS-1 Rocket 3.1 20:34:05 42° SE 20:35:32 58° ENE 20:40:28 10° N
Cosmos 2237 Rocket 3.4 20:36:25 10° NW 20:41:31 36° WSW 20:44:53 19° SSW
Cosmos 407 Rocket 4.4 20:40:14 10° SW 20:45:10 47° WNW 20:50:12 10° NNE
Meteor 2-8 Rocket 4.3 20:46:52 29° S 20:50:14 86° E 20:56:24 10° N
Cosmos 2263 Rocket 3.6 20:51:48 22° ENE 20:51:48 22° ENE 20:54:42 10° NE
Cosmos 2084 Rocket 3.8 20:49:43 10° SW 20:53:39 58° NW 20:57:41 10° NE
Lacrosse 5 rocket 3.2 20:50:06 10° NW 20:53:47 27° NNE 20:56:01 18° ENE
Cosmos 1869 3.5 20:55:43 57° SW 20:56:20 69° W 21:00:17 10° N
Cosmos 2082 3.5 20:53:32 29° SSW 20:56:31 80° ESE 21:02:09 10° NNE
STPSAT 2 (USA 217) 4.4 20:52:26 10° NNW 20:57:00 85° ENE 20:57:28 72° SE
Cosmos 2227 Rocket 2.7 20:51:36 10° SW 20:57:10 59° WNW 21:02:48 10° NNE
Cosmos 921 Rocket 4.3 20:56:38 10° N 21:00:29 28° ENE 21:00:29 28° ENE
Cosmos 1741 Rocket 4.4 21:01:00 43° E 21:01:00 43° E 21:05:36 10° NNE
Cosmos 1954 Rocket 4.2 20:58:20 20° SSW 21:01:55 71° WNW 21:07:07 10° NNE
Cosmos 1842 Rocket 3.8 21:03:29 54° ENE 21:03:29 54° ENE 21:07:27 10° NNE
Cosmos 2297 Rocket 3.4 20:58:49 10° SW 21:04:10 43° NW 21:09:34 10° NNE
Cosmos 1850 Rocket 4.3 21:04:35 49° E 21:04:35 49° E 21:09:17 10° NNE
Cosmos 1603 4.4 21:02:57 10° NNW 21:08:23 42° NE 21:09:37 37° E
Spot 2 Rocket 4.2 21:09:34 35° SSW 21:11:12 47° W 21:16:07 10° NNW
Cosmos 2219 4.4 21:06:32 10° SW 21:11:49 41° NW 21:17:09 10° NNE
Meteor 2-2 Rocket 4.1 21:16:19 59° S 21:17:27 79° E 21:23:10 10° NNE
CRYOSAT 2 4.2 21:17:15 78° SE 21:17:33 84° E 21:22:29 10° N
Cosmos 44 Rocket 3.4 21:16:06 33° SW 21:18:26 81° NW 21:23:41 10° NE
Cosmos 1408 Rocket 3.6 21:14:07 10° NNW 21:18:22 73° W 21:18:22 73° W
SL-08 ROCKET BODY 4.3 21:12:39 10° N 21:18:43 71° E 21:19:44 59° SE
Meteor 1-4 Rocket 3.8 21:19:02 36° WNW 21:19:02 36° WNW 21:22:19 10° N
ARIANE 5 R/B 3.7 21:18:32 33° WSW 21:19:22 36° W 21:23:25 10° NNW
USA 229 DEB 4.1 21:13:03 10° NW 21:20:17 65° NE 21:23:02 41° ESE
USA 229 4.1 21:13:09 10° NW 21:20:23 65° NE 21:23:08 41° ESE
Cosmos 1745 Rocket 4.1 21:20:54 10° N 21:27:09 60° ENE 21:28:01 54° ESE
Sich 1 4.4 21:24:09 10° N 21:27:04 29° NE 21:27:04 29° NE
Meteor 2-15 Rocket 4.4 21:27:31 52° SSW 21:29:06 84° W 21:35:13 10° N
Cosmos 2221 2.7 21:29:48 67° NNW 21:29:48 67° NNW 21:33:37 10° N
Cosmos 468 Rocket 4.2 21:24:17 10° NNW 21:29:20 59° WSW 21:29:45 57° SW
COSMOS 2455 3.1 21:24:00 10° SW 21:29:58 65° NW 21:36:00 10° NNE
Cosmos 841 Rocket 3.4 21:29:47 10° NNW 21:35:01 76° ENE 21:35:03 76° ENE
Cosmos 1743 Rocket 3.9 21:32:07 10° N 21:35:47 63° NNW 21:35:47 63° NNW
SL-16 R/B 3.1 21:32:42 10° NW 21:37:52 36° WSW 21:38:53 34° SW
SL-4 R/B 2.6 21:33:38 10° W 21:38:09 65° NNW 21:38:43 58° NNE
NOSS 3-1 (A) 4.1 21:30:52 10° NW 21:38:16 75° NE 21:41:02 46° ESE
S3M 4.0 21:40:09 62° ESE 21:40:43 65° E 21:47:04 10° NNE
Cosmos 1763 Rocket 4.0 21:38:57 10° NNW 21:43:47 45° WSW 21:43:55 45° WSW
Cosmos 1814 Rocket 4.1 21:43:32 10° NNW 21:48:41 70° NE 21:48:41 70° NE
Cosmos 2227 4.3 21:54:22 65° ENE 21:54:22 65° ENE 21:59:32 10° NNE
Cosmos 540 Rocket 3.6 21:49:26 10° NNW 21:54:12 66° W 21:54:12 66° W
Cosmos 1500 Rocket 4.3 21:50:29 10° NNW 21:54:14 51° WNW 21:54:14 51° WNW
Meteor 1-20 Rocket 4.3 21:52:36 10° N 21:58:20 63° ENE 21:58:20 63° ENE
Cosmos 1386 Rocket 4.2 21:52:50 10° N 21:58:55 85° W 21:59:17 79° SSW
Terra 2.9 21:59:35 35° W 21:59:35 35° W 22:03:56 10° NNW
NOSS 3-1 (C) 4.2 21:55:10 10° NW 22:02:37 63° WSW 22:04:15 54° SSW
Cosmos 1943 3.1 21:59:20 10° NNW 22:04:47 82° WNW 22:04:47 82° WNW
USA 215 3.9 22:06:18 38° SW 22:06:18 38° SW 22:12:19 10° WNW
Cosmos 1553 Rocket 4.3 22:08:28 48° WSW 22:09:42 56° WNW 22:15:43 10° N
ALOS 2 3.9 22:14:51 35° NNE 22:14:51 35° NNE 22:17:52 10° N
Aureole 1 Rocket 4.3 22:22:52 45° W 22:23:25 47° WNW 22:27:53 10° N
Lacrosse 5 rocket 3.0 22:29:06 10° NW 22:31:36 34° NW 22:31:36 34° NW
Cosmos 2263 Rocket 2.6 22:33:26 55° WNW 22:33:47 56° WNW 22:39:18 10° NNE
SeaSat 1 2.9 22:30:28 10° NNE 22:34:31 58° N 22:34:31 58° N
Meteor 2-17 Rocket 4.5 22:33:02 10° NNW 22:39:05 71° W 22:39:05 71° W
Iridium 4 Rocket 4.0 22:41:38 56° NNE 22:41:38 56° NNE 22:45:56 10° N
Cosmos 1844 Rocket 3.8 22:48:08 34° ENE 22:48:08 34° ENE 22:51:42 10° NE
Cosmos 2184 Rocket 4.3 22:41:54 10° N 22:48:07 55° ENE 22:48:10 55° ENE
Cosmos 2315 Rocket 4.0 22:48:28 76° W 22:48:33 77° W 22:54:57 10° N
USA 281 4.1 22:47:12 34° E 22:49:02 41° NE 22:55:08 10° NNW
Cosmos 968 Rocket 4.0 23:03:16 56° NNE 23:03:16 56° NNE 23:07:24 10° NNE
Thor Agena Rocket 4.3 23:00:18 10° NNE 23:04:04 47° NE 23:04:04 47° NE
Meteor 1-14 Rocket 4.5 23:03:22 10° NNW 23:08:50 71° NW 23:08:50 71° NW
NOSS 2-2 (D) 4.4 23:04:56 10° NW 23:10:04 78° NNE 23:10:04 78° NNE
Meteor 1-5 Rocket 4.4 23:07:59 10° N 23:12:58 67° N 23:12:58 67° N
Cosmos 2074 Rocket 3.9 23:09:29 10° N 23:15:33 83° NNE 23:15:33 83° NNE
Nimbus 7 Rocket 4.4 23:18:39 10° NNE 23:24:09 75° NNW 23:24:09 75° NNW
Cosmos 2278 Rocket 4.1 23:33:50 19° E 23:33:50 19° E 23:36:53 10° NE
Cosmos 1610 Rocket 4.4 23:27:03 10° N 23:33:07 77° ENE 23:33:07 77° ENE
Nadezhda 1 Rocket 4.0 23:40:22 81° ENE 23:40:22 81° ENE 23:46:39 10° N
ATLAS 5 CENTAUR R/B 3.2 23:39:08 10° NNW 23:44:18 44° NE 23:46:48 30° E
